Hourly Data Report for June 05, 2020

BORDEN AWOS
ONTARIO
Current Station Operator: DND

44°16'20.000" N
79°54'42.000" W
222.50 m
611B002
71534
YBN

Download Data

Hourly Data (June 2020)
Hourly Data Report for June 5, 2020
TIME
LST
Temp Definition
°C
Dew Point Definition
°C
Rel Hum Definition
%
Precip. Amount Definition
mm

Wind Dir Definition
10's deg

Wind Spd Definition
km/h
Visibility Definition
km
Stn Press Definition
kPa
Hmdx Definition


Wind Chill Definition


Weather Definition


00:00 13.0 12.1 94   21 6 14.5 98.32     LegendNANA
01:00 12.8 12.0 95     0 14.5 98.29     LegendNANA
02:00 12.5 12.0 97     0 14.5 98.28     LegendNANA
03:00 11.4 11.4 100     0 14.5 98.28     LegendNANA
04:00 10.7 10.2 97     0 14.5 98.32     LegendNANA
05:00 11.1 11.1 100     0 14.5 98.37     LegendNANA
06:00 14.7 13.9 95     0 14.5 98.36     LegendNANA
07:00 17.1 14.5 85   3 4 14.5 98.36     LegendNANA
08:00 21.6 15.7 69     0 14.5 98.39 26   LegendNANA
09:00 23.9 15.6 60   32 6 14.5 98.39 28   LegendNANA
10:00 25.4 15.8 55   36 13 14.5 98.43 30   LegendNANA
11:00 25.7 15.9 55   35 13 14.5 98.40 30   LegendNANA
12:00 27.4 15.9 50   3 6 14.5 98.34 32   LegendNANA
13:00 27.7 15.2 47   33 11 14.5 98.29 32   LegendNANA
14:00 29.3 15.2 42   34 6 14.5 98.21 33   LegendNANA
15:00 27.9 14.8 45   1 17 14.5 98.22 32   LegendNANA
16:00 24.4 13.1 49   32 15 14.5 98.25 27   LegendNANA
17:00 22.3 11.5 50   33 13 14.5 98.24     LegendNANA
18:00 21.8 11.5 52   35 13 14.5 98.23     LegendNANA
19:00 20.9 11.6 55   28 4 14.5 98.26     LegendNANA
20:00 19.1 12.0 63   23 7 14.5 98.30     LegendNANA
21:00 16.2 12.0 76     0 14.5 98.35     LegendNANA
22:00 13.2 11.4 89     0 14.5 98.31     LegendNANA
23:00 15.1 13.3 89     0 14.5 98.33     Rain

Notes on Data Quality.

Legend

  • E = Estimated
  • M = Missing
  • NA = Not Available*
  • [empty] = Indicates an unobserved value
Date modified: